Find Hispasat 1E

NORAD ID: 37264 Int'l Des: 2010-070 Owner: HISP Country: E operational
HEOCIRCULARGSOGEO

Current View

Loading 3D Globe...

About Hispasat 1E

Description loading...

Upcoming Passes

Passes for default location (London). Set your location on the main map for personalized predictions.

Altitude History

Loading altitude history...

Two-Line Element Set

1 37264U 10070A 26150.05322699 -.00000204 00000-0 00000+0 0 9996
2 37264 0.0603 119.5460 0005203 333.0610 144.1395 1.00273213 53009
Epoch: May 30, 2026 • Age: 9 hours

Current Status

Altitude 35781.6 km
Velocity 3.08 km/s
Sub-Earth Point -0.03°S, 30.05°W
Launch Date Dec 29, 2010
Age 15.4 years
Type other

Technical Details

Classification Payload
Mass 5270.00 kg
Dry Mass 3000.00 kg
Total Mass 5270.00 kg
Length 5.40 m
Diameter 2.20 m
Span 26.70 m
Shape Box + 2 Cruci Pan
Manufacturer LOR
Bus Type SSL-1300
Phase Status Renamed
Owner/State HISP/E

Most Searched